STARLINK-34260, 64334

Orbit data source: Space-Track

STARLINK-34260, 64334 is a payload satellite owned by SpaceX/Seattle (US) in LEO that was launched on Tue, 10 Jun 2025 UTC via an FALCON 9 launch vehicle from the Air Force Eastern Test Range (AFETR). Payload-class satellites include a variety of spacecraft equipped with specific instruments for various scientific and technological missions. These include communications satellites like Starlink; space stations such as the ISS; scientific satellites like the Hubble; Earth observation satellites from companies like Planet Labs, Umbra, and HawkEye 360; GPS; miniature CubeSats for education and research; and military/defense satellites.

Loading next visibility...
Identifier
64334, 2025-124T
Orbit
LEO
Country
Flag of USUS
Related business
Manufacturer
SpaceX/Seattle
Mission
Operational Commercial Communications
Bus & Motor
STARLINK V2MO, Unknown motor
Mass
575 kg wet, ~530 kg dry
Launch date (UTC)
2025-06-10 (1 year ago)
Launch vehicle
FALCON 9
Launch site
Air Force Eastern Test Range (AFETR)
Object type
Payload
Rocket body
Debris
Shape & HBR
Box + 2 Pan, 17.7 m
Radar Cross Section
36.964 m², Large (>1 m²)

Expand to show TLE details & history
Last TLE update: 14 hours ago

TLE from 14 hours ago
0 STARLINK-34260
1 64334U 25124T   26171.25375810  .00010442  00000-0  38834-3 0  9992
2 64334  42.9980 262.7050 0001341 209.8227 150.2548 15.27589435 57461
Epoch: 2026-06-20T06:05Z
TLE epoch observation values (Epoch: 2026-06-20T06:05:24.699Z)
Latitude
-0.00006°
Longitude
-97.119°
Altitude
483.595 km
Speed
7.625 km/s
True Right ascension
17h 30m 49s
True Declination
0° 00' 00"
Sunlit
Object was in full shadow at epoch
Visualization orbit readout
Latitude
Unknown
Longitude
Unknown
Altitude
Unknown
Speed
Unknown
Apparent Right ascension
Unknown
Apparent Declination
Unknown
Sunlit
N/A
Visualization observer readout
Local Sidereal Time
07:19:02
Azimuth
Unknown
Elevation
Unknown
Doppler factor
Unknown
Orbital elements
Apogee altitude
485.887 km
Perigee altitude
484.046 km
Semi-major axis
6,863.103 km
Eccentricity
0.00013
Inclination
42.998°
RAAN
262.705°
Arg. of periapsis
209.8227°
True anomaly
150.26242°
Mean anomaly
150.2548°
Eccentric anomaly
150.25861°
Mean motion
3.81735 °/min
Orbital period
94.31 mins
BSTAR
0.00038834
Loading maneuver chart data...
Computing Atmospheric mass density...
Loading historical data...
Loading historical data...
Loading historical data...
Loading historical data...
Loading historical data...
Loading historical data...
Loading historical data...

Documentation

Showing up to 5 results
|